TimeEST,TemperatureF,Dew PointF,Humidity,Sea Level PressureIn,VisibilityMPH,Wind Direction,Wind SpeedMPH,Gust SpeedMPH,PrecipitationIn,Events,Conditions,WindDirDegrees,DateUTC
12:53 AM,26.1,21.9,84,30.18,10.0,SSW,3.5,-,N/A,,Overcast,210,2014-02-09 05:53:00
1:53 AM,27.0,23.0,85,30.16,10.0,Calm,Calm,-,N/A,,Overcast,0,2014-02-09 06:53:00
2:08 AM,27.0,23.0,85,30.14,10.0,SSW,4.6,-,N/A,,Overcast,200,2014-02-09 07:08:00
2:53 AM,27.0,23.0,85,30.17,9.0,South,3.5,-,N/A,,Overcast,190,2014-02-09 07:53:00
3:36 AM,27.0,24.1,89,30.13,7.0,South,3.5,-,N/A,,Overcast,180,2014-02-09 08:36:00
3:53 AM,27.0,24.1,89,30.14,7.0,South,3.5,-,N/A,,Overcast,190,2014-02-09 08:53:00
4:00 AM,27.0,24.1,89,30.13,7.0,SSW,3.5,-,N/A,,Overcast,200,2014-02-09 09:00:00
4:07 AM,27.0,24.1,89,30.13,6.0,SSW,4.6,-,N/A,,Overcast,200,2014-02-09 09:07:00
4:53 AM,27.0,25.0,92,30.15,4.0,Calm,Calm,-,N/A,,Overcast,0,2014-02-09 09:53:00
5:32 AM,28.0,26.1,92,30.12,4.0,SSE,3.5,-,N/A,,Overcast,150,2014-02-09 10:32:00
5:53 AM,28.0,26.1,92,30.13,4.0,South,3.5,-,N/A,,Overcast,190,2014-02-09 10:53:00
6:53 AM,28.0,26.1,92,30.11,3.0,Calm,Calm,-,N/A,,Overcast,0,2014-02-09 11:53:00
7:10 AM,28.0,26.1,92,30.10,4.0,South,4.6,-,0.00,,Light Freezing Drizzle,190,2014-02-09 12:10:00
7:53 AM,28.0,26.1,92,30.12,3.0,SW,4.6,-,0.00,,Light Freezing Drizzle,230,2014-02-09 12:53:00
8:30 AM,28.0,26.1,92,30.10,2.0,WSW,3.5,-,0.00,,Light Freezing Drizzle,250,2014-02-09 13:30:00
8:53 AM,28.0,26.1,92,30.12,1.8,WSW,4.6,-,0.00,Snow,Light Snow,240,2014-02-09 13:53:00
9:37 AM,28.0,25.0,88,30.11,2.5,West,8.1,-,0.02,Snow,Light Snow,270,2014-02-09 14:37:00
9:49 AM,28.4,24.8,86,30.11,3.0,West,6.9,-,0.02,Snow,Light Snow,280,2014-02-09 14:49:00
9:53 AM,28.0,25.0,88,30.12,3.0,West,5.8,-,0.02,Snow,Light Snow,280,2014-02-09 14:53:00
10:09 AM,28.0,24.1,85,30.10,1.8,West,9.2,-,0.00,Snow,Light Snow,280,2014-02-09 15:09:00
10:18 AM,28.0,24.1,85,30.10,3.0,West,9.2,-,0.00,Snow,Light Snow,280,2014-02-09 15:18:00
10:53 AM,28.0,25.0,88,30.15,1.0,West,9.2,-,0.01,Snow,Light Snow,280,2014-02-09 15:53:00
11:41 AM,28.9,21.9,75,30.12,10.0,West,13.8,19.6,0.00,,Overcast,280,2014-02-09 16:41:00
11:53 AM,28.9,21.0,72,30.14,10.0,West,9.2,-,0.00,,Overcast,280,2014-02-09 16:53:00
12:53 PM,28.9,18.0,64,30.13,10.0,West,15.0,-,N/A,,Overcast,260,2014-02-09 17:53:00
1:53 PM,28.9,18.0,64,30.13,10.0,WNW,10.4,21.9,N/A,,Overcast,290,2014-02-09 18:53:00
2:53 PM,28.0,17.1,63,30.14,10.0,NW,9.2,18.4,N/A,,Overcast,320,2014-02-09 19:53:00
3:53 PM,28.0,16.0,61,30.15,10.0,NNW,9.2,-,N/A,,Overcast,330,2014-02-09 20:53:00
4:53 PM,27.0,15.1,61,30.17,10.0,West,12.7,-,N/A,,Mostly Cloudy,270,2014-02-09 21:53:00
5:53 PM,27.0,15.1,61,30.22,10.0,West,11.5,-,N/A,,Mostly Cloudy,280,2014-02-09 22:53:00
6:53 PM,26.1,12.9,58,30.25,10.0,West,9.2,-,N/A,,Mostly Cloudy,270,2014-02-09 23:53:00
7:53 PM,25.0,12.9,60,30.25,10.0,NNW,5.8,-,N/A,,Overcast,330,2014-02-10 00:53:00
8:53 PM,25.0,10.9,55,30.26,10.0,NW,6.9,-,N/A,,Overcast,320,2014-02-10 01:53:00
9:53 PM,24.1,10.9,57,30.28,10.0,NNW,4.6,-,N/A,,Overcast,330,2014-02-10 02:53:00
10:53 PM,21.9,10.0,60,30.27,10.0,NNW,6.9,-,N/A,,Overcast,330,2014-02-10 03:53:00
11:53 PM,21.0,10.0,63,30.29,10.0,NNW,4.6,-,N/A,,Mostly Cloudy,330,2014-02-10 04:53:00